CAPE
663 1076 1454 1662 1734 1685 1503 1469 1469 1512 1846 2114 2225 2298 2143 1955 1931 1891 1945 2213 2357 2577 2541 2004 2108 1956 2167 2000 2256 2116 1885 1701 1684 1585 1678 1781 1534 1501 1653 1726 1592 1270 1533
694 1178 1425 1663 1842 1839 1693 1542 1583 1662 1882 2163 2256 2347 2284 2135 2085 2014 2117 2318 2369 2598 2327 2014 2044 2189 2045 2190 1794 1875 1781 1512 1471 1478 1555 1893 1790 1586 1572 1572 1520 1364 1424
1033 1291 1446 1569 1868 1952 1883 1786 1796 1937 1969 2144 2256 2298 2345 2347 2224 2136 2161 2229 2368 2541 2205 1891 1827 1858 1886 1663 1449 1602 1594 1482 1417 1498 1662 1007 1084 1476 1542 1585 1638 1495 1397
1148 1296 1399 1656 1665 1984 1915 1943 1972 2147 2145 2145 2208 2287 2348 2389 2343 2235 2141 2158 2517 2529 2315 1887 1801 1828 1947 1438 1403 1465 1515 1560 1495 1514 908 838 1116 1461 1321 1477 1470 1458 1468
1333 1371 1501 1786 1917 1993 1970 2001 2084 2090 2018 2088 2168 2296 2367 2415 2379 2323 2151 2339 2621 2591 2276 2010 1990 2046 1486 1190 1224 1350 1451 1410 1303 780 803 737 1039 1350 1348 1367 1458 1449 1471
1436 1508 1597 1718 1906 1987 2028 2078 2131 1993 1857 1912 2120 2333 2426 2485 2499 2354 2186 2359 2785 2608 2508 2332 1736 1729 1167 1103 1183 1242 1163 1002 618 540 572 841 820 1355 1413 1360 1465 1468 1382
1440 1511 1571 1684 1829 1961 2130 2166 2119 1930 1809 1889 2093 2261 2395 2481 2473 2243 2097 2328 2642 2522 2336 2202 1748 1327 1094 1113 1164 1008 744 626 389 355 535 603 712 1394 1263 1265 1380 1390 1354
1367 1443 1587 1717 1813 1940 2038 2050 2003 1853 1828 1887 2017 2142 2399 2387 2262 2153 2067 2234 2339 1972 1790 1638 1339 1144 1064 1115 1005 692 461 481 318 289 303 384 1009 1249 1326 1222 1304 1337 1349
1049 1349 1581 1768 1872 1797 1844 1838 1847 1789 1805 1885 1974 2049 2219 2224 2093 2005 2004 2142 1973 1541 1439 1375 1128 1029 1050 1005 596 403 358 323 247 291 314 329 1288 1503 1253 1176 1182 1275 1187
843 1175 1364 1417 1726 1651 1586 1649 1697 1753 1788 1837 1895 1961 2040 1982 1953 1906 1859 1870 1687 1230 1250 1198 917 982 913 637 221 192 223 238 141 172 238 442 973 1397 1180 924 983 1079 1013
654 644 926 1090 1258 1421 1538 1483 1641 1742 1807 1846 1880 1868 1853 1521 1631 1634 1531 1577 1346 976 1020 918 770 664 536 254 168 145 148 122 89 109 157 509 1053 1312 1169 1037 976 975 866
577 411 762 781 899 1038 1264 1356 1430 1672 1803 1774 1693 1552 1310 1231 1122 1103 1023 1311 1018 709 817 601 627 323 185 62 83 101 76 89 69 54 165 595 1215 1200 1101 916 940 895 792
1144 710 484 498 654 645 918 1177 1315 1222 1298 1259 1335 1263 1055 789 722 457 497 475 339 441 277 168 12 2 0 47 50 54 42 63 84 49 163 499 880 1186 1065 800 663 581 491
1555 1347 943 585 528 613 929 1063 1177 1187 978 1066 1033 786 1038 1025 824 168 312 34 4 1 2 0 1 0 0 21 57 37 12 40 41 19 84 297 719 1081 1013 622 623 580 437
674 1540 1352 843 709 764 781 889 1028 1182 1149 1087 792 714 1121 1034 903 408 222 49 0 0 0 0 0 1 4 86 114 11 9 11 19 13 98 132 299 817 1033 797 693 540 442
0 699 1651 1151 914 709 842 869 855 956 991 806 775 988 1034 857 648 372 295 91 22 0 0 0 0 3 74 93 14 7 7 17 18 11 78 70 170 262 636 689 525 370 367
0 0 1038 1613 1164 882 970 786 752 779 676 574 641 830 691 563 383 169 64 31 2 0 0 1 0 0 1 2 3 24 8 40 16 8 45 24 80 134 219 400 456 370 315
0 0 0 1617 1568 1218 1123 1166 963 763 737 656 562 678 564 383 156 87 32 25 0 0 2 0 0 2 13 0 7 17 15 24 5 1 3 5 0 0 101 215 208 241 255
0 0 0 1004 1775 1686 1484 1448 1254 980 891 655 595 627 434 239 102 69 39 18 2 2 5 3 3 0 8 3 3 23 6 27 6 10 1 0 0 0 0 14 46 37 63
0 0 0 266 1722 1995 1954 1664 1467 1202 1105 993 643 650 457 232 63 65 57 19 14 4 4 2 2 1 8 15 32 29 5 7 17 15 2 2 0 0 0 0 0 0 3
0 0 0 13 1553 2045 2215 1775 1524 1354 1318 1217 893 718 583 348 203 208 115 15 12 18 1 0 6 7 2 11 4 1 1 1 1 1 1 0 0 0 0 0 0 0 1
0 0 0 0 885 2007 2026 1955 1684 1645 1360 1302 1029 757 714 477 327 301 193 87 13 1 2 18 20 12 7 23 5 0 0 2 1 1 1 0 0 0 0 0 0 0 0
0 0 0 0 266 1790 1980 1940 813 990 684 609 701 541 376 424 277 254 182 100 76 42 35 30 19 2 16 24 0 0 1 0 3 1 1 0 0 0 0 0 0 0 0
0 0 0 0 0 1703 1947 1848 1499 1535 1253 1072 794 517 218 178 260 212 152 115 56 113 131 37 7 0 0 1 1 0 0 0 0 2 1 1 0 0 0 0 0 0 0
0 0 0 0 5 1489 1900 1673 1346 1387 1221 876 776 1 185 148 58 155 131 68 143 111 81 28 4 1 0 2 2 0 0 0 0 0 0 1 0 0 0 0 0 0 0
0 0 0 0 336 1563 1760 1459 1058 1166 388 737 711 423 307 108 110 161 185 142 87 53 45 10 4 3 2 4 1 0 0 0 0 0 0 0 0 0 0 0 0 0 0
CIN
-705 -592 -429 -300 -239 -224 -258 -287 -301 -270 -209 -170 -143 -112 -105 -104 -93 -87 -55 -13 -1 0 0 0 0 0 0 -1 0 -1 -6 -13 -10 -10 -2 0 0 0 0 0 0 0 0
-754 -564 -445 -319 -242 -230 -247 -267 -255 -229 -189 -159 -141 -116 -96 -81 -69 -75 -42 -10 -1 0 0 0 0 0 -1 -3 -14 -8 -8 -19 -20 -16 -6 0 0 0 0 0 0 0 0
-651 -527 -439 -367 -261 -221 -221 -228 -217 -162 -145 -132 -124 -111 -90 -72 -54 -55 -43 -17 -2 0 0 0 0 0 -4 -16 -31 -24 -19 -21 -20 -12 -1 -21 -5 0 0 0 0 0 0
-575 -496 -437 -346 -301 -219 -213 -210 -193 -136 -93 -108 -109 -102 -84 -57 -37 -39 -33 -17 -1 0 0 0 0 -1 -4 -26 -33 -26 -15 -14 -14 -7 -39 -34 -3 -1 0 0 0 0 0
-516 -489 -425 -336 -268 -224 -208 -188 -177 -146 -107 -94 -96 -72 -59 -40 -18 -18 -18 -2 0 0 0 0 0 -1 -22 -41 -41 -34 -23 -16 -16 -61 -45 -30 -9 -2 0 -1 0 0 0
-486 -457 -421 -355 -280 -234 -203 -185 -171 -165 -141 -117 -77 -38 -26 -21 -6 -9 -14 -4 0 0 0 0 -1 -6 -40 -54 -49 -41 -47 -68 -89 -88 -70 -17 -13 -1 0 0 0 0 0
-496 -470 -424 -358 -296 -250 -203 -188 -179 -184 -163 -125 -64 -39 -23 -15 -9 -16 -13 -3 -1 -1 -1 -2 -8 -22 -43 -42 -33 -38 -60 -93 -139 -124 -54 -28 -12 0 0 0 0 0 0
-485 -449 -389 -346 -310 -267 -234 -223 -202 -194 -165 -118 -70 -46 -17 -11 -18 -18 -15 -5 -3 -11 -12 -12 -23 -32 -34 -25 -28 -60 -102 -89 -119 -107 -99 -72 -6 -2 0 0 0 0 0
-468 -398 -353 -313 -295 -293 -279 -276 -241 -219 -179 -130 -80 -42 -16 -7 -15 -20 -15 -8 -9 -22 -15 -24 -42 -37 -28 -27 -66 -93 -74 -107 -117 -104 -72 -76 -4 0 0 0 0 0 -1
-464 -394 -351 -321 -258 -283 -309 -299 -280 -252 -207 -166 -114 -64 -29 -16 -13 -16 -15 -9 -15 -44 -33 -34 -47 -35 -31 -66 -114 -83 -83 -130 -122 -142 -100 -57 -15 0 0 0 -12 0 0
-430 -455 -386 -354 -309 -291 -262 -293 -251 -229 -223 -173 -127 -90 -59 -77 -33 -28 -29 -17 -31 -53 -40 -54 -57 -63 -65 -99 -146 -68 -70 -113 -132 -140 -130 -54 -9 0 0 0 -2 0 0
-347 -448 -394 -395 -377 -356 -318 -288 -270 -210 -200 -210 -185 -164 -186 -139 -123 -93 -81 -28 -44 -69 -50 -79 -66 -91 -90 -117 -95 -81 -129 -127 -83 -144 -114 -47 -2 0 0 0 -1 -1 0
-234 -350 -403 -422 -440 -436 -379 -318 -277 -285 -278 -293 -277 -247 -248 -238 -218 -275 -188 -140 -152 -92 -97 -123 -44 -20 0 -124 -107 -105 -135 -128 -55 -112 -119 -55 -14 0 0 -12 -1 -2 -1
-181 -249 -314 -394 -387 -439 -373 -343 -306 -302 -343 -329 -342 -376 -254 -184 -191 -377 -246 -433 -423 0 -183 0 -22 0 0 -77 -94 -95 -123 -87 -81 -130 -153 -80 -16 0 0 -2 0 0 -2
-261 -242 -271 -354 -357 -320 -345 -356 -338 -318 -319 -320 -357 -400 -258 -205 -183 -262 -275 -375 0 0 0 0 0 -1 -52 -69 -56 -61 -90 -100 -67 -86 -141 -128 -47 -10 -1 0 0 0 -6
0 -220 -260 -311 -351 -332 -288 -318 -358 -343 -343 -363 -359 -297 -291 -267 -259 -276 -229 -278 -343 0 0 0 0 -21 -80 -64 -50 -30 -31 -66 -49 -71 -153 -144 -72 -28 -10 -3 0 0 -6
0 0 -278 -261 -327 -351 -297 -336 -364 -355 -351 -369 -356 -310 -318 -340 -332 -336 -364 -365 -387 0 0 0 0 0 -75 -63 -46 -42 -59 -64 -45 -80 -171 -161 -108 -52 -43 -8 -1 0 -2
0 0 0 -220 -241 -300 -305 -274 -303 -342 -339 -315 -328 -302 -309 -357 -414 -399 -378 -367 0 0 -1 0 0 -26 -129 0 -45 -74 -78 -77 -71 0 -84 -160 0 0 -44 -26 -3 -3 -3
0 0 0 -241 -164 -207 -263 -253 -260 -278 -275 -297 -300 -273 -327 -366 -439 -443 -397 -323 -57 0 0 0 0 -1 -83 -20 -20 -60 -88 -53 -72 -54 -21 0 0 0 0 -12 -22 -27 -81
0 0 0 -390 -155 -143 -154 -174 -205 -212 -228 -237 -276 -276 -308 -359 -494 -453 -396 -361 -245 0 0 -1 0 -51 -66 -44 -22 -114 -64 -41 -68 -61 -54 0 0 0 0 0 0 0 -11
0 0 0 -124 -194 -102 -63 -104 -158 -179 -207 -198 -268 -264 -277 -304 -353 -311 -333 -394 -270 -197 0 0 0 -60 -60 -25 -25 0 0 0 0 -18 -42 0 0 0 0 0 0 0 -24
0 0 0 0 -274 -133 -108 -120 -135 -184 -184 -200 -195 -200 -269 -270 -283 -265 -276 -284 -308 0 -14 -127 -91 -60 -18 -6 -3 0 0 0 0 0 0 0 0 0 0 0 0 0 0
0 0 0 0 -297 -160 -126 -114 -319 -256 -280 -244 -200 -246 -203 -237 -304 -273 -271 -287 -258 -157 -149 -121 -84 -2 -16 -9 0 0 0 0 0 0 0 0 0 0 0 0 0 0 0
0 0 0 0 0 -131 -95 -94 -165 -188 -189 -206 -265 -229 -117 -73 -271 -258 -275 -278 -284 -139 -89 -131 -112 -2 0 0 0 0 0 0 0 0 0 0 0 0 0 0 0 0 0
0 0 0 0 -403 -148 -106 -133 -202 -201 -224 -282 -254 -64 -239 -168 -316 -296 -282 -325 -198 -165 -141 -152 -146 -1 -1 -1 -1 0 0 0 0 0 0 0 0 0 0 0 0 0 0
0 0 0 0 -445 -119 -106 -168 -260 -231 -399 -279 -263 -305 -268 -300 -291 -247 -239 -244 -221 -222 -185 -180 -160 -7 -4 -1 -2 -3 0 0 0 0 0 0 -1 0 0 0 0 0 0
Wind_Speed
6 12 17 15 12 12 13 12 13 13 15 17 17 17 18 18 19 19 18 17 15 15 15 15 13 9 13 10 10 11 10 11 12 13 15 17 17 16 15 13 12 11 15
9 11 18 16 13 13 13 13 12 11 14 16 18 18 19 18 18 19 19 17 15 15 16 15 14 12 13 9 10 11 11 12 13 14 16 16 16 16 16 13 12 12 14
10 11 13 16 14 12 13 14 14 12 11 14 16 17 18 19 18 18 19 17 17 17 17 15 15 13 11 10 11 13 13 13 13 15 15 6 9 16 16 15 14 14 14
9 9 9 14 16 13 13 13 14 14 11 12 15 17 18 18 18 18 17 16 16 18 17 16 15 13 10 11 12 12 13 12 13 12 6 5 9 16 17 16 16 16 15
9 10 10 14 13 13 13 12 12 12 11 11 11 13 15 17 17 16 15 16 17 18 17 17 14 12 12 12 13 13 14 12 12 9 6 5 6 13 18 16 15 15 13
8 8 12 15 15 15 14 14 12 12 11 10 10 11 12 14 15 14 14 15 17 17 17 16 14 12 12 13 13 13 14 15 12 7 6 8 6 15 17 16 14 14 14
11 10 12 15 16 16 15 15 13 13 12 11 11 11 11 13 14 14 13 13 15 15 15 12 14 12 11 12 13 13 12 13 8 6 5 6 7 17 18 17 15 16 15
9 10 11 16 16 16 15 14 13 12 12 11 11 12 11 11 11 12 12 12 12 13 12 11 12 13 12 12 12 12 13 11 7 6 6 6 13 18 19 19 17 16 17
5 5 7 10 12 13 13 14 13 13 12 12 11 10 10 9 9 10 11 10 11 9 9 11 14 14 14 12 10 12 12 11 6 4 6 5 18 19 19 19 19 17 17
5 6 7 9 9 7 9 13 14 14 13 13 12 11 10 10 9 10 10 10 10 11 11 14 14 13 12 11 13 9 10 15 5 5 3 6 19 20 21 20 19 18 18
2 4 5 7 10 9 8 6 10 13 13 12 11 11 8 5 6 7 7 10 12 11 11 12 13 13 12 13 15 12 10 2 3 3 3 13 20 22 21 19 17 16 17
4 2 10 9 8 10 7 7 5 9 8 9 9 7 5 5 5 5 6 11 11 11 12 11 12 13 11 6 6 10 4 5 3 4 4 15 18 22 21 19 18 17 17
4 4 8 9 11 11 8 7 4 5 6 7 8 7 5 4 4 3 3 3 4 9 5 6 6 4 5 5 4 4 5 4 3 5 7 15 21 22 22 20 19 19 18
9 9 7 6 9 12 8 8 8 8 7 6 6 8 7 5 5 5 4 4 4 3 6 5 4 5 5 5 7 7 5 4 2 4 5 11 19 20 21 21 21 21 20
7 10 11 11 8 7 10 8 9 10 8 9 7 8 8 7 7 6 5 5 4 4 6 7 7 6 6 7 6 7 7 4 2 5 4 10 12 21 21 20 19 18 20
10 10 11 15 14 9 10 9 8 8 10 9 9 8 11 8 7 6 6 5 5 6 5 7 8 7 7 8 8 7 5 3 2 6 4 5 10 14 19 18 18 17 18
10 13 12 15 15 16 14 10 8 8 8 8 9 11 11 9 9 8 6 5 5 5 6 4 5 5 6 5 7 7 6 3 2 5 6 4 5 10 11 12 14 16 18
9 10 12 12 15 18 16 12 8 8 7 7 8 8 11 10 11 8 7 6 5 5 6 5 7 7 6 5 5 4 6 4 4 4 4 5 5 4 6 10 12 14 16
10 10 11 12 15 19 17 13 11 10 8 7 7 9 11 10 10 9 7 6 7 6 6 6 5 6 7 6 5 4 5 4 5 4 5 6 7 5 4 7 10 11 13
14 10 12 11 16 17 12 10 9 9 9 9 9 11 13 9 12 9 7 7 8 7 6 6 8 5 5 6 5 4 4 5 5 5 5 3 5 6 5 5 5 6 12
9 13 11 10 15 12 11 11 10 13 11 10 11 15 15 11 12 10 7 8 8 8 8 8 5 9 4 5 5 4 2 3 6 5 5 3 4 5 5 4 3 4 6
13 10 13 14 14 15 13 13 7 11 11 9 7 9 13 14 13 10 10 9 10 7 8 9 8 4 4 9 4 5 3 1 0 5 5 6 5 4 5 5 5 5 4
13 12 12 12 15 15 17 11 4 6 5 4 7 8 9 13 14 12 11 10 10 9 8 10 9 10 6 7 9 5 4 4 3 0 6 6 7 5 4 5 6 6 6
14 13 14 13 16 15 16 15 18 13 11 10 10 8 6 9 12 12 12 10 13 9 9 10 8 8 6 8 5 2 2 5 4 2 1 3 5 5 5 4 5 6 6
15 15 14 15 15 15 16 18 15 13 8 7 8 14 13 11 10 11 11 13 10 8 9 10 10 9 8 7 8 4 2 2 2 3 4 3 2 4 4 5 6 6 7
14 15 15 16 15 13 17 17 17 16 11 11 12 10 11 10 8 11 12 10 9 9 10 9 9 10 9 8 7 6 8 5 5 4 3 7 8 3 5 6 6 6 6
Wind_Direction
210 160 153 151 155 154 155 151 145 142 135 130 131 135 143 147 148 145 144 143 149 152 152 146 144 149 159 149 155 148 140 127 126 128 127 130 133 130 122 116 114 117 121
126 152 151 150 155 156 155 154 147 147 141 134 133 135 141 146 148 146 145 148 151 150 150 150 148 146 153 142 135 126 130 129 131 133 130 135 134 132 126 115 114 121 123
137 148 153 151 154 159 160 155 147 146 147 138 134 134 138 143 149 148 150 153 154 151 151 155 155 152 146 125 120 132 134 132 137 134 136 136 138 140 132 121 117 123 124
140 142 147 148 166 162 162 153 148 147 153 145 140 141 142 144 148 150 151 151 151 150 153 158 159 154 139 131 130 128 132 133 129 119 112 116 134 143 140 129 126 127 127
142 144 149 151 158 161 158 154 145 142 150 153 147 142 142 144 147 150 148 151 155 156 158 163 157 149 149 140 137 136 137 134 127 119 124 137 134 150 143 136 131 128 125
139 147 153 156 161 163 161 156 149 145 150 149 143 144 145 144 148 152 154 160 159 161 164 167 164 159 156 151 148 145 142 134 130 132 128 140 148 155 145 135 131 126 125
156 156 160 162 168 167 164 159 155 153 153 151 150 150 158 160 158 158 162 167 168 169 167 158 157 163 160 152 148 143 136 135 134 128 130 140 171 157 147 140 135 128 127
152 155 164 169 169 169 167 161 157 156 158 159 158 160 164 168 167 163 172 174 172 162 170 171 157 160 155 152 150 143 137 132 130 138 150 160 165 157 152 145 138 130 124
108 142 164 177 175 169 166 162 162 162 165 165 166 167 165 172 169 174 177 176 172 174 175 159 155 155 160 155 149 145 137 131 138 156 165 171 155 159 155 145 136 129 127
102 159 169 185 183 181 175 170 170 169 171 169 170 174 171 175 178 182 185 186 167 157 157 156 157 160 164 134 131 178 157 142 159 171 190 176 160 159 156 151 143 136 134
65 141 172 187 196 190 195 187 175 177 171 171 174 177 172 169 182 187 184 181 167 153 162 158 156 154 153 145 139 165 141 128 156 185 197 177 160 159 155 150 145 137 135
278 230 194 192 193 193 194 197 181 190 191 177 178 178 166 166 170 168 173 179 167 158 156 158 158 155 148 147 152 147 152 120 221 200 197 168 165 162 154 149 144 139 136
218 204 218 209 189 189 197 193 188 193 193 187 166 167 161 156 153 140 146 152 136 142 147 150 135 136 145 144 152 156 147 135 203 214 197 169 164 163 154 151 147 151 150
201 190 197 203 220 199 186 187 197 194 194 191 176 161 164 169 163 151 159 164 146 149 154 160 154 148 152 165 165 167 154 148 187 235 185 174 164 165 162 164 164 163 159
217 199 197 177 212 221 201 192 192 200 192 189 187 172 169 175 171 158 157 166 143 148 167 174 172 177 174 170 167 170 154 131 227 236 165 180 180 163 165 170 168 174 159
239 230 208 193 193 183 212 207 202 198 198 190 184 193 175 178 170 168 166 174 162 172 176 187 185 173 172 173 174 158 121 113 221 248 152 173 172 179 166 172 173 174 164
230 230 207 202 192 186 202 199 196 199 196 191 190 187 190 175 174 163 158 174 169 176 163 146 147 135 147 153 155 153 126 163 189 252 170 153 159 169 175 173 179 178 168
255 227 226 212 195 198 195 193 199 191 187 186 182 185 192 184 179 160 163 180 164 170 174 174 166 163 158 158 152 154 147 164 173 224 233 149 154 150 163 171 175 177 172
259 245 234 215 202 202 199 189 190 193 187 184 179 186 189 186 176 170 168 170 163 170 180 173 173 170 174 163 155 160 154 167 186 192 232 180 164 158 146 167 167 167 171
310 253 241 222 211 202 201 190 186 188 185 185 190 191 184 185 178 169 162 161 170 175 177 164 171 173 168 169 152 155 167 182 180 184 200 209 165 146 152 163 155 163 167
333 329 254 223 215 197 196 192 190 196 193 198 187 188 184 182 178 170 163 165 175 179 178 173 162 163 150 151 121 118 80 158 183 183 170 166 171 154 153 159 154 160 178
318 317 321 251 218 200 195 199 191 192 203 199 184 198 177 177 177 174 167 172 178 172 177 174 173 156 167 173 158 127 152 121 204 185 169 175 171 149 164 169 163 168 170
323 320 307 300 254 208 197 188 120 119 89 129 175 175 200 182 169 175 174 175 176 179 188 183 177 178 178 186 172 144 152 174 136 173 185 173 160 168 169 168 182 178 177
323 320 308 300 286 218 190 187 190 189 180 191 184 148 161 216 177 167 185 182 189 178 186 182 183 193 181 197 179 154 112 134 166 154 207 159 140 173 158 181 186 190 184
326 318 313 308 279 215 191 191 191 193 181 162 174 163 178 188 155 168 184 191 186 182 189 175 179 192 194 205 199 157 128 146 121 152 158 138 152 176 165 187 193 195 182
326 328 326 319 287 204 196 192 193 190 164 158 164 163 176 175 160 184 184 183 189 183 185 176 182 190 194 204 196 196 196 173 175 156 115 174 190 190 180 195 192 200 189